Sundsvall-Harnosand Airpor, Sweden

8:23 AM CEST on August 21, 2017 (GMT +0200)
Sundsvall-Harnosand

Weather History for ESNN - October, 2013

Change the Weather History Date:

Sunday, October 13, 2013

  Actual Average Record
Temperature  
Mean Temperature 50 °F -  
Max Temperature 57 °F - - ()
Min Temperature 42 °F - - ()
Degree Days  
Heating Degree Days 15    
Moisture  
Dew Point 40 °F    
Average Humidity 72    
Maximum Humidity 87    
Minimum Humidity 45    
Precipitation  
Precipitation 0.00 in - - ()
Sea Level Pressure  
Sea Level Pressure 30.31 in    
Wind  
Wind Speed 6 mph ()    
Max Wind Speed 13 mph    
Max Gust Speed -    
Visibility 6.2 miles    
Events      
T = Trace of Precipitation, MM = Missing Value Source: Averaged Metar Reports

Daily Weather History Graph

Daily Weather History Graph

Search for Another Location

Airport or City:

Trip Planner

Search our weather history database for the weather conditions in past years. The results will help you decide how hot, cold, wet, or windy it might be!

Date:

Astronomy

Oct. 13, 2013 Rise Set
Actual Time 7:30 AM CEST 5:41 PM CEST
Civil Twilight 6:44 AM CEST 6:26 PM CEST
Nautical Twilight 5:52 AM CEST 7:18 PM CEST
Astronomical Twilight 4:58 AM CEST 8:11 PM CEST
Moon 3:51 PM CEST (10/13) No Moon Set
Length of Visible Light 11h 42m
Length of Day
10h 10m
Waxing Gibbous, 66% of the Moon is Illuminated
Oct 13
Waxing Gibbous
Oct 19
Full
Oct 27
Last Quarter
Nov 3
New
Nov 10
First Quarter

Hourly Weather History & Observations

Time (CEST) Temp. Windchill Dew Point Humidity Pressure Visibility Wind Dir Wind Speed Gust Speed Precip Events Conditions
12:00 AM 48 °F - 41 °F 70% 30.32 in 31 mi NW 13.4 mph - -  
12:20 AM 48.2 °F - 41.0 °F 76% 30.30 in 6.2 mi WNW 4.6 mph - N/A   Unknown
12:50 AM 46.4 °F - 41.0 °F 81% 30.30 in 6.2 mi Variable 2.3 mph - N/A   Unknown
1:00 AM 47 °F - 41 °F 73% 30.32 in 31 mi WNW 6.7 mph - -  
1:20 AM 46.4 °F 45.2 °F 41.0 °F 81% 30.30 in 6.2 mi NW 3.5 mph - N/A   Unknown
1:50 AM 48.2 °F - 41.0 °F 76% 30.30 in 6.2 mi WNW 5.8 mph - N/A   Unknown
2:00 AM 47 °F - 41 °F 72% 30.31 in 31 mi North 2.2 mph - -  
2:20 AM 44.6 °F - 39.2 °F 81% 30.30 in 6.2 mi Variable 1.2 mph - N/A   Unknown
2:50 AM 46.4 °F 43.5 °F 41.0 °F 81% 30.30 in 6.2 mi NW 5.8 mph - N/A   Unknown
3:00 AM 46 °F - 40 °F 72% 30.30 in 31 mi NW 8.9 mph - -  
3:20 AM 46.4 °F 44.3 °F 39.2 °F 76% 30.27 in 6.2 mi WNW 4.6 mph - N/A   Unknown
3:50 AM 44.6 °F 43.1 °F 39.2 °F 81% 30.27 in 6.2 mi NNW 3.5 mph - N/A   Unknown
4:20 AM 44.6 °F 40.2 °F 39.2 °F 81% 30.27 in 6.2 mi NW 8.1 mph - N/A   Unknown
4:50 AM 44.6 °F 39.2 °F 39.2 °F 81% 30.27 in 6.2 mi WNW 10.4 mph - N/A   Unknown
5:20 AM 44.6 °F 38.8 °F 39.2 °F 81% 30.27 in 6.2 mi WNW 11.5 mph - N/A   Unknown
5:50 AM 44.6 °F 40.2 °F 39.2 °F 81% 30.27 in 6.2 mi WNW 8.1 mph - N/A   Unknown
6:00 AM 45 °F - 39 °F 73% 30.27 in 31 mi NW 13.4 mph - -  
6:20 AM 44.6 °F 39.7 °F 39.2 °F 81% 30.24 in 6.2 mi NW 9.2 mph - N/A   Unknown
6:50 AM 44.6 °F 40.7 °F 39.2 °F 81% 30.24 in 6.2 mi WNW 6.9 mph - N/A   Unknown
7:00 AM 45 °F - 39 °F 72% 30.27 in 31 mi WNW 6.7 mph - -  
7:20 AM 44.6 °F 40.2 °F 39.2 °F 81% 30.27 in 6.2 mi WNW 8.1 mph - N/A   Unknown
7:50 AM 44.6 °F 40.7 °F 39.2 °F 81% 30.27 in 6.2 mi WNW 6.9 mph - N/A   Unknown
8:00 AM 46 °F - 39 °F 70% 30.29 in 31 mi WNW 11.2 mph - -  
8:20 AM 46.4 °F 42.9 °F 39.2 °F 76% 30.27 in 6.2 mi WNW 6.9 mph - N/A   Unknown
8:50 AM 46.4 °F 42.9 °F 39.2 °F 76% 30.27 in 6.2 mi WNW 6.9 mph - N/A   Unknown
9:00 AM 48 °F - 40 °F 66% 30.29 in 22 mi NW 8.9 mph - -  
9:20 AM 48.2 °F - 41.0 °F 76% 30.27 in 6.2 mi NW 6.9 mph - N/A   Unknown
9:50 AM 50.0 °F - 41.0 °F 71% 30.27 in 6.2 mi NW 5.8 mph - N/A   Unknown
10:00 AM 50 °F - 41 °F 62% 30.30 in 31 mi NW 8.9 mph - -  
10:20 AM 50.0 °F - 41.0 °F 71% 30.30 in 6.2 mi NW 4.6 mph - N/A   Unknown
10:50 AM 51.8 °F - 41.0 °F 67% 30.30 in 6.2 mi NW 4.6 mph - N/A   Unknown
11:20 AM 53.6 °F - 42.8 °F 67% 30.30 in 6.2 mi NNW 4.6 mph - N/A   Unknown
11:50 AM 53.6 °F - 42.8 °F 67% 30.30 in - NW 4.6 mph - N/A   Clear
12:00 PM 55 °F - 43 °F 54% 30.32 in 28 mi NNW 6.7 mph - -  
12:20 PM 55.4 °F - 42.8 °F 63% 30.30 in - NW 8.1 mph - N/A   Clear
12:50 PM 55.4 °F - 42.8 °F 63% 30.30 in - NNW 10.4 mph - N/A   Clear
1:00 PM 57 °F - 42 °F 45% 30.32 in 28 mi NNE 8.9 mph - -  
1:20 PM 57.2 °F - 41.0 °F 55% 30.30 in - North 9.2 mph - N/A   Clear
1:50 PM 57.2 °F - 41.0 °F 55% 30.30 in - North 8.1 mph - N/A   Clear
2:00 PM 56 °F - 41 °F 46% 30.33 in 31 mi NNE 6.7 mph - -  
2:20 PM 57.2 °F - 41.0 °F 55% 30.30 in - NE 5.8 mph - N/A   Clear
2:50 PM 57.2 °F - 42.8 °F 59% 30.30 in - NNE 5.8 mph - N/A   Clear
3:00 PM 56 °F - 41 °F 47% 30.32 in 28 mi ENE 4.5 mph - -   Scattered Clouds
3:20 PM 51.8 °F - 44.6 °F 76% 30.33 in 6.2 mi ENE 11.5 mph - N/A   Mostly Cloudy
3:50 PM 50.0 °F - 42.8 °F 76% 30.33 in 6.2 mi ENE 12.7 mph - N/A   Mostly Cloudy
4:00 PM 49 °F - 41 °F 66% 30.35 in 28 mi ENE 8.9 mph - -   Mostly Cloudy
4:20 PM 48.2 °F - 41.0 °F 76% 30.36 in 6.2 mi East 8.1 mph - N/A   Mostly Cloudy
4:50 PM 48.2 °F - 41.0 °F 76% 30.36 in 6.2 mi ENE 8.1 mph - N/A   Mostly Cloudy
5:20 PM 48.2 °F - 39.2 °F 71% 30.36 in 6.2 mi East 4.6 mph - N/A   Overcast
5:50 PM 46.4 °F 44.3 °F 39.2 °F 76% 30.36 in 6.2 mi ENE 4.6 mph - N/A   Overcast
6:00 PM 47 °F - 39 °F 64% 30.37 in 31 mi East 4.5 mph - -   Overcast
6:20 PM 46.4 °F - 39.2 °F 76% 30.36 in 6.2 mi Variable 2.3 mph - N/A   Overcast
6:50 PM 46.4 °F 45.2 °F 37.4 °F 71% 30.36 in 6.2 mi East 3.5 mph - N/A   Overcast
7:00 PM 46 °F - 38 °F 65% 30.38 in 31 mi Calm Calm - -   Partly Cloudy
7:20 PM 46.4 °F - 37.4 °F 71% 30.36 in 6.2 mi Calm Calm - N/A   Overcast
7:50 PM 46.4 °F - 37.4 °F 71% 30.36 in 6.2 mi Calm Calm - N/A   Overcast
8:00 PM 46 °F - 38 °F 64% 30.38 in 31 mi Calm Calm - -   Overcast
8:20 PM 46.4 °F - 37.4 °F 71% 30.36 in 6.2 mi Calm Calm - N/A   Overcast
8:50 PM 44.6 °F - 39.2 °F 81% 30.36 in 6.2 mi Calm Calm - N/A   Overcast
9:00 PM 45 °F - 40 °F 75% 30.37 in 31 mi Calm Calm - -   Overcast
9:20 PM 44.6 °F - 39.2 °F 81% 30.36 in 6.2 mi Calm Calm - N/A   Overcast
9:50 PM 44.6 °F - 39.2 °F 81% 30.36 in 6.2 mi NNE 2.3 mph - N/A   Overcast
10:00 PM 44 °F - 40 °F 82% 30.37 in 31 mi North 2.2 mph - -   Overcast
10:20 PM 44.6 °F - 39.2 °F 81% 30.36 in 6.2 mi NW 2.3 mph - N/A   Overcast
10:50 PM 44.6 °F - 39.2 °F 81% 30.36 in 6.2 mi Calm Calm - N/A   Overcast
11:20 PM 44.6 °F - 39.2 °F 81% 30.33 in 6.2 mi Variable 2.3 mph - N/A   Overcast
11:50 PM 42.8 °F - 39.2 °F 87% 30.33 in 6.2 mi North 2.3 mph - N/A   Overcast